Location: Unspecified
(52.4292°N, 19.3359°E)
Time: 23:33:13
(UTC+02:00)

Altair - Pass Details

Date: 25 May 2024
Orbit: 1502 x 1682 km, 47.2° (Epoch: 19 June)

Event Time Altitude Azimuth Distance (km) Brightness Sun altitude
Rises 13:02:48 0° 264° (W) 4,864 10.2 58.3°
Reaches altitude 10° 13:05:55 10° 262° (W) 3,896 9.9 58.2°
Maximum altitude 13:15:49 66° 183° (S) 1,799 10.3 57.9°
Drops below altitude 10° 13:25:50 10° 104° (ESE) 3,942 9.7 57.4°
Sets 13:29:01 0° 102° (ESE) 4,924 10.1 57.2°
